UWE-4

导读

UWE-4是德国(DE)于2018年12月27日发射的一颗实验性小卫星,依托德国高校航天研究项目打造,聚焦微型卫星技术验证。它承担着空间环境探测、新型通信模块测试等任务,是德国推动小卫星技术发展、参与“新太空”探索的典型实践,为后续小型航天器研发和商业航天应用积累了宝贵的轨道实验数据。

基本信息
目录编号:
43880
目录名称:
UWE-4
国际标识:
2018-111E
轨道中心:
EARTH
卫星名称:
UWE-4
卫星全名:
--
卫星状态:
在轨 (已飞行2809 天)
发射日期:
2018-12-27 UTC
国别 :
德国 (DE)
星等 :
--
轨道信息
数据来源 国际轨道数据
星历时间: 2026-09-05T10:01:44+0800
8小时前
查看轨道信息
半长轴: 6791.877km
偏心率: 0.0008666
轨道倾角: 97.581°
近地点辐角 51.707°
升交点赤经 180.442°
平近点角 308.496°
近地点: 407.854km
远地点: 419.626km
周期: 92.842分钟
每日圈数: 15.510224
详细信息
使用方式:
暂无
2D轨道图
3D轨道图
轨道高度分析图
轨道倾角分析图
轨道综合分析图
查看轨道综合分析图
交会数据列表
事件ID 空间交会对象 最接近时刻(TCA) 交会距离 交会风险概率(CRP) 交会风险指数(CRI) 操作
CDM_260906-021904-388005-720022
UWE-4 (43880)
2026-09-06T
02:19:01+0000
1.516 km
极远距离
6.375068E-6 低风险 0.51
CDM_260905-145004-388004-891523
UWE-4 (43880)
YAM-3 (48915)
2026-09-05T
14:50:26+0000
2.406 km
极远距离
1.634053E-6 低风险 0.39
CDM_260907-044604-070104-388021
GAOFEN 8 (40701)
UWE-4 (43880)
2026-09-07T
04:46:14+0000
2.793 km
极远距离
1.244184E-6 低风险 0.37
CDM_260907-030904-388006-949821
UWE-4 (43880)
2026-09-07T
03:09:19+0000
2.975 km
极远距离
1.134279E-6 低风险 0.36